sat.trackr.live / text

‹ back to catalog

STARLINK-35421

NORAD 66062 · 2025-235E

PAYLOAD ACTIVE UNKNOWN

§ Identity

Operator
Country
US
Launch date
2025-10-19
Launch site
AFETR
Launch vehicle
Mass (kg)
RCS (m²)

Purposes: comms

External: N2YO · Heavens-Above · Gunter

§ Orbital elements

Epoch: 2026-09-20T14:17:14.688960Z

Period
93.85 min
Inclination
53.1584°
Eccentricity
0.0000384
Mean motion
15.34420447 rev/d
Perigee alt
462.4 km
Apogee alt
462.9 km
Semi-major
6,840.8 km
B*
7.4391e-4
RAAN
57.0301°
Arg perigee
98.7714°
Mean anomaly
261.3333°
Rev number
5,280

§ Raw data

STARLINK-354211 66062U 25235E   26263.59530890  .00024858  00000+0  74391-3 0  99982 66062  53.1584  57.0301 0000384  98.7714 261.3333 15.34420447 52805

JSON: /api/v1/satellites/66062 · /tle

For live sub-satellite position, see the globe view (requires WebGL).

§ Visibility from observer

Set your observer location to see the next 7 days of passes ≥ 10°. The values pass through the URL so the page stays shareable.

No JS? Fill the form by hand. The geolocation button needs JavaScript.